Time,TemperatureF,DewpointF,PressureIn,WindDirection,WindDirectionDegrees,WindSpeedMPH,WindSpeedGustMPH,Humidity,HourlyPrecipIn,Conditions,Clouds,dailyrainin,SoftwareType,DateUTC
2013-03-21 00:00:00,34.0,17.8,29.80,WSW,248,0.0,0.0,51,0.00,,,0.00,meteohub,2013-03-21 04:00:00,
2013-03-21 00:05:00,34.0,17.8,29.80,WSW,248,0.0,0.0,51,0.00,,,0.00,meteohub,2013-03-21 04:05:00,
2013-03-21 00:10:00,34.0,17.8,29.80,WSW,248,0.0,0.0,51,0.00,,,0.00,meteohub,2013-03-21 04:10:00,
2013-03-21 00:15:00,33.8,17.6,29.77,WSW,248,0.0,0.0,51,0.00,,,0.00,meteohub,2013-03-21 04:15:00,
2013-03-21 00:20:00,33.8,17.6,29.77,WSW,248,0.0,0.0,51,0.00,,,0.00,meteohub,2013-03-21 04:20:00,
2013-03-21 00:25:00,33.8,18.0,29.77,WSW,248,0.0,0.0,52,0.00,,,0.00,meteohub,2013-03-21 04:25:00,
2013-03-21 00:30:00,33.8,18.0,29.77,WSW,248,0.0,0.0,52,0.00,,,0.00,meteohub,2013-03-21 04:30:00,
2013-03-21 00:35:00,34.0,18.1,29.77,WSW,248,0.0,0.0,52,0.00,,,0.00,meteohub,2013-03-21 04:35:00,
2013-03-21 00:40:00,34.0,17.8,29.77,WSW,248,0.0,0.0,51,0.00,,,0.00,meteohub,2013-03-21 04:40:00,
2013-03-21 00:45:00,34.0,17.8,29.77,WSW,248,0.0,0.0,51,0.00,,,0.00,meteohub,2013-03-21 04:45:00,
2013-03-21 00:50:00,34.3,18.5,29.77,WSW,248,0.0,0.0,52,0.00,,,0.00,meteohub,2013-03-21 04:50:00,
2013-03-21 00:55:00,34.7,18.9,29.77,WSW,248,0.0,0.0,52,0.00,,,0.00,meteohub,2013-03-21 04:55:00,
2013-03-21 01:00:00,35.4,19.0,29.77,WSW,248,0.0,0.0,51,0.00,,,0.00,meteohub,2013-03-21 05:00:00,
2013-03-21 01:05:00,36.1,18.9,29.77,WSW,248,0.0,0.0,49,0.00,,,0.00,meteohub,2013-03-21 05:05:00,
2013-03-21 01:10:00,37.6,18.7,29.77,WSW,248,4.0,4.0,46,0.00,,,0.00,meteohub,2013-03-21 05:10:00,
2013-03-21 01:15:00,38.5,18.0,29.77,WSW,248,4.0,4.0,43,0.00,,,0.00,meteohub,2013-03-21 05:15:00,
2013-03-21 01:20:00,39.2,17.4,29.77,WSW,248,2.0,4.0,41,0.00,,,0.00,meteohub,2013-03-21 05:20:00,
2013-03-21 01:25:00,39.0,17.2,29.74,WSW,248,0.0,4.0,41,0.00,,,0.00,meteohub,2013-03-21 05:25:00,
2013-03-21 01:30:00,39.2,17.4,29.74,WSW,248,0.0,4.0,41,0.00,,,0.00,meteohub,2013-03-21 05:30:00,
2013-03-21 01:35:00,39.2,16.9,29.74,WSW,248,0.0,3.0,40,0.00,,,0.00,meteohub,2013-03-21 05:35:00,
2013-03-21 01:40:00,39.4,17.1,29.74,WSW,248,0.0,0.0,40,0.00,,,0.00,meteohub,2013-03-21 05:40:00,
2013-03-21 01:45:00,39.4,17.1,29.74,WSW,248,0.0,3.0,40,0.00,,,0.00,meteohub,2013-03-21 05:45:00,
2013-03-21 01:50:00,39.7,17.4,29.74,WSW,248,2.0,3.0,40,0.00,,,0.00,meteohub,2013-03-21 05:50:00,
2013-03-21 01:55:00,39.9,17.6,29.74,WSW,248,3.0,3.0,40,0.00,,,0.00,meteohub,2013-03-21 05:55:00,
2013-03-21 02:01:00,40.1,17.8,29.74,WSW,248,3.0,4.0,40,0.00,,,0.00,meteohub,2013-03-21 06:01:00,
2013-03-21 02:06:00,40.5,18.0,29.74,WSW,248,3.0,4.0,40,0.00,,,0.00,meteohub,2013-03-21 06:06:00,
2013-03-21 02:11:00,40.6,18.1,29.74,WSW,248,3.0,4.0,40,0.00,,,0.00,meteohub,2013-03-21 06:11:00,
2013-03-21 02:16:00,40.6,18.1,29.74,WSW,248,2.0,4.0,40,0.00,,,0.00,meteohub,2013-03-21 06:16:00,
2013-03-21 02:21:00,40.8,18.3,29.74,West,270,5.0,5.0,40,0.00,,,0.00,meteohub,2013-03-21 06:21:00,
2013-03-21 02:26:00,41.0,18.5,29.74,WSW,248,3.0,5.0,40,0.00,,,0.00,meteohub,2013-03-21 06:26:00,
2013-03-21 02:31:00,41.4,18.9,29.74,WSW,248,2.0,5.0,40,0.00,,,0.00,meteohub,2013-03-21 06:31:00,
2013-03-21 02:36:00,41.7,19.2,29.74,WSW,248,4.0,5.0,40,0.00,,,0.00,meteohub,2013-03-21 06:36:00,
2013-03-21 02:41:00,41.7,19.2,29.74,NW,315,0.0,4.0,40,0.00,,,0.00,meteohub,2013-03-21 06:41:00,
2013-03-21 02:46:00,41.9,19.4,29.74,West,270,0.0,4.0,40,0.00,,,0.00,meteohub,2013-03-21 06:46:00,
2013-03-21 02:51:00,42.4,19.8,29.74,WNW,292,2.0,4.0,40,0.00,,,0.00,meteohub,2013-03-21 06:51:00,
2013-03-21 02:56:00,42.4,20.5,29.74,SSE,158,0.0,5.0,41,0.00,,,0.00,meteohub,2013-03-21 06:56:00,
2013-03-21 03:01:00,42.4,20.5,29.74,NW,315,3.0,5.0,41,0.00,,,0.00,meteohub,2013-03-21 07:01:00,
2013-03-21 03:07:00,42.4,21.0,29.74,North,0,3.0,4.0,42,0.00,,,0.00,meteohub,2013-03-21 07:07:00,
2013-03-21 03:12:00,42.4,21.6,29.71,NW,315,0.0,4.0,43,0.00,,,0.00,meteohub,2013-03-21 07:12:00,
2013-03-21 03:17:00,42.3,22.5,29.71,NW,315,0.0,4.0,45,0.00,,,0.00,meteohub,2013-03-21 07:17:00,
2013-03-21 03:22:00,42.1,22.3,29.71,NW,315,2.0,4.0,45,0.00,,,0.00,meteohub,2013-03-21 07:22:00,
2013-03-21 03:27:00,41.7,22.5,29.71,NW,315,3.0,3.0,46,0.00,,,0.00,meteohub,2013-03-21 07:27:00,
2013-03-21 03:32:00,41.5,22.8,29.71,NW,315,0.0,3.0,47,0.00,,,0.00,meteohub,2013-03-21 07:32:00,
2013-03-21 03:37:00,41.0,22.8,29.71,NW,315,0.0,3.0,48,0.00,,,0.00,meteohub,2013-03-21 07:37:00,
2013-03-21 03:42:00,40.3,22.6,29.71,NW,315,2.0,3.0,49,0.00,,,0.00,meteohub,2013-03-21 07:42:00,
2013-03-21 03:47:00,39.6,22.5,29.71,NNW,338,0.0,3.0,50,0.00,,,0.00,meteohub,2013-03-21 07:47:00,
2013-03-21 03:52:00,39.4,22.8,29.71,NNW,338,0.0,3.0,51,0.00,,,0.00,meteohub,2013-03-21 07:52:00,
2013-03-21 03:57:00,38.7,22.6,29.71,North,0,2.0,3.0,52,0.00,,,0.00,meteohub,2013-03-21 07:57:00,
2013-03-21 04:02:00,38.1,23.0,29.71,North,0,0.0,3.0,54,0.00,,,0.00,meteohub,2013-03-21 08:02:00,
2013-03-21 04:07:00,38.1,23.4,29.71,NNE,22,0.0,3.0,55,0.00,,,0.00,meteohub,2013-03-21 08:07:00,
2013-03-21 04:12:00,37.9,23.7,29.71,NNE,22,0.0,5.0,56,0.00,,,0.00,meteohub,2013-03-21 08:12:00,
2013-03-21 04:17:00,37.8,23.9,29.71,NNE,22,0.0,5.0,57,0.00,,,0.00,meteohub,2013-03-21 08:17:00,
2013-03-21 04:22:00,37.4,23.9,29.71,NNE,22,0.0,5.0,58,0.00,,,0.00,meteohub,2013-03-21 08:22:00,
2013-03-21 04:27:00,37.4,24.8,29.74,North,0,3.0,3.0,60,0.00,,,0.00,meteohub,2013-03-21 08:27:00,
2013-03-21 04:32:00,37.6,25.7,29.74,NNE,22,3.0,4.0,62,0.00,,,0.00,meteohub,2013-03-21 08:32:00,
2013-03-21 04:37:00,37.6,25.7,29.74,North,0,3.0,4.0,62,0.00,,,0.00,meteohub,2013-03-21 08:37:00,
2013-03-21 04:42:00,38.1,25.0,29.74,NNE,22,4.0,7.0,59,0.00,,,0.00,meteohub,2013-03-21 08:42:00,
2013-03-21 04:47:00,38.7,23.0,29.74,NNE,22,4.0,8.0,53,0.00,,,0.00,meteohub,2013-03-21 08:47:00,
2013-03-21 04:52:00,38.8,21.7,29.74,NNE,22,4.0,11.0,50,0.00,,,0.00,meteohub,2013-03-21 08:52:00,
2013-03-21 04:57:00,38.8,20.3,29.74,East,90,5.0,11.0,47,0.00,,,0.00,meteohub,2013-03-21 08:57:00,
2013-03-21 05:02:00,39.0,19.9,29.74,NNE,22,4.0,11.0,46,0.00,,,0.00,meteohub,2013-03-21 09:02:00,
2013-03-21 05:07:00,38.8,19.4,29.74,NNE,22,5.0,11.0,45,0.00,,,0.00,meteohub,2013-03-21 09:07:00,
2013-03-21 05:12:00,38.7,19.2,29.74,NNE,22,4.0,11.0,45,0.00,,,0.00,meteohub,2013-03-21 09:12:00,
2013-03-21 05:17:00,38.5,19.0,29.74,NNE,22,6.0,11.0,45,0.00,,,0.00,meteohub,2013-03-21 09:17:00,
2013-03-21 05:22:00,38.1,18.7,29.74,NNE,22,4.0,11.0,45,0.00,,,0.00,meteohub,2013-03-21 09:22:00,
2013-03-21 05:27:00,38.1,18.1,29.74,North,0,4.0,8.0,44,0.00,,,0.00,meteohub,2013-03-21 09:27:00,
2013-03-21 05:32:00,37.9,18.5,29.74,NNE,22,3.0,8.0,45,0.00,,,0.00,meteohub,2013-03-21 09:32:00,
2013-03-21 05:37:00,38.1,18.1,29.74,North,0,5.0,8.0,44,0.00,,,0.00,meteohub,2013-03-21 09:37:00,
2013-03-21 05:43:00,37.9,18.0,29.74,NNE,22,4.0,9.0,44,0.00,,,0.00,meteohub,2013-03-21 09:43:00,
2013-03-21 05:48:00,37.8,17.8,29.74,NNE,22,0.0,9.0,44,0.00,,,0.00,meteohub,2013-03-21 09:48:00,
2013-03-21 05:53:00,37.6,17.6,29.74,NNE,22,8.0,9.0,44,0.00,,,0.00,meteohub,2013-03-21 09:53:00,
2013-03-21 05:58:00,37.2,17.8,29.74,NNW,338,4.0,8.0,45,0.00,,,0.00,meteohub,2013-03-21 09:58:00,
2013-03-21 06:03:00,37.2,18.3,29.74,NNE,22,8.0,8.0,46,0.00,,,0.00,meteohub,2013-03-21 10:03:00,
2013-03-21 06:08:00,37.0,18.1,29.74,NNW,338,4.0,8.0,46,0.00,,,0.00,meteohub,2013-03-21 10:08:00,
2013-03-21 06:13:00,37.2,17.8,29.74,NNW,338,0.0,8.0,45,0.00,,,0.00,meteohub,2013-03-21 10:13:00,
2013-03-21 06:18:00,37.0,18.1,29.74,NNW,338,3.0,11.0,46,0.00,,,0.00,meteohub,2013-03-21 10:18:00,
2013-03-21 06:23:00,36.9,18.0,29.74,NNW,338,3.0,11.0,46,0.00,,,0.00,meteohub,2013-03-21 10:23:00,
2013-03-21 06:28:00,36.7,17.8,29.74,NE,45,4.0,11.0,46,0.00,,,0.00,meteohub,2013-03-21 10:28:00,
2013-03-21 06:33:00,36.7,17.8,29.74,NNE,22,4.0,6.0,46,0.00,,,0.00,meteohub,2013-03-21 10:33:00,
2013-03-21 06:38:00,36.3,18.0,29.74,NNE,22,2.0,6.0,47,0.00,,,0.00,meteohub,2013-03-21 10:38:00,
2013-03-21 06:43:00,36.1,18.3,29.77,NNE,22,3.0,8.0,48,0.00,,,0.00,meteohub,2013-03-21 10:43:00,
2013-03-21 06:48:00,36.1,18.3,29.77,North,0,4.0,8.0,48,0.00,,,0.00,meteohub,2013-03-21 10:48:00,
2013-03-21 06:53:00,36.3,18.0,29.77,WSW,248,3.0,8.0,47,0.00,,,0.00,meteohub,2013-03-21 10:53:00,
2013-03-21 06:58:00,36.5,18.1,29.77,North,0,3.0,4.0,47,0.00,,,0.00,meteohub,2013-03-21 10:58:00,
2013-03-21 07:03:00,36.5,17.2,29.77,NNE,22,0.0,6.0,45,0.00,,,0.00,meteohub,2013-03-21 11:03:00,
2013-03-21 07:08:00,36.5,17.2,29.77,NNE,22,5.0,6.0,45,0.00,,,0.00,meteohub,2013-03-21 11:08:00,
2013-03-21 07:13:00,36.3,16.5,29.74,NW,315,5.0,6.0,44,0.00,,,0.00,meteohub,2013-03-21 11:13:00,
2013-03-21 07:18:00,36.3,15.4,29.74,North,0,2.0,5.0,42,0.00,,,0.00,meteohub,2013-03-21 11:18:00,
2013-03-21 07:23:00,36.1,15.3,29.74,NE,45,4.0,5.0,42,0.00,,,0.00,meteohub,2013-03-21 11:23:00,
2013-03-21 07:28:00,36.0,14.5,29.74,NNW,338,3.0,5.0,41,0.00,,,0.00,meteohub,2013-03-21 11:28:00,
2013-03-21 07:33:00,35.8,14.4,29.74,North,0,3.0,5.0,41,0.00,,,0.00,meteohub,2013-03-21 11:33:00,
2013-03-21 07:38:00,35.8,14.4,29.74,NNW,338,4.0,5.0,41,0.00,,,0.00,meteohub,2013-03-21 11:38:00,
2013-03-21 07:43:00,35.8,13.8,29.74,NE,45,4.0,5.0,40,0.00,,,0.00,meteohub,2013-03-21 11:43:00,
2013-03-21 07:48:00,35.8,14.4,29.74,North,0,3.0,6.0,41,0.00,,,0.00,meteohub,2013-03-21 11:48:00,
2013-03-21 07:53:00,36.1,14.2,29.74,NNE,22,3.0,6.0,40,0.00,,,0.00,meteohub,2013-03-21 11:53:00,
2013-03-21 07:58:00,36.7,14.5,29.77,North,0,3.0,6.0,40,0.00,,,0.00,meteohub,2013-03-21 11:58:00,
2013-03-21 08:03:00,36.9,14.7,29.77,NNE,22,5.0,5.0,40,0.00,,,0.00,meteohub,2013-03-21 12:03:00,
2013-03-21 08:08:00,37.0,14.9,29.77,NW,315,4.0,5.0,40,0.00,,,0.00,meteohub,2013-03-21 12:08:00,
2013-03-21 08:13:00,37.2,14.5,29.77,NNW,338,3.0,8.0,39,0.00,,,0.00,meteohub,2013-03-21 12:13:00,
2013-03-21 08:19:00,37.4,14.7,29.77,NNE,22,3.0,8.0,39,0.00,,,0.00,meteohub,2013-03-21 12:19:00,
2013-03-21 08:24:00,37.4,14.7,29.77,North,0,7.0,11.0,39,0.00,,,0.00,meteohub,2013-03-21 12:24:00,
2013-03-21 08:29:00,37.4,14.2,29.77,NNW,338,5.0,11.0,38,0.00,,,0.00,meteohub,2013-03-21 12:29:00,
2013-03-21 08:34:00,37.6,14.2,29.77,NNE,22,3.0,11.0,38,0.00,,,0.00,meteohub,2013-03-21 12:34:00,
2013-03-21 08:39:00,37.6,13.6,29.77,NNW,338,3.0,10.0,37,0.00,,,0.00,meteohub,2013-03-21 12:39:00,
2013-03-21 08:44:00,37.6,13.6,29.77,ENE,68,4.0,11.0,37,0.00,,,0.00,meteohub,2013-03-21 12:44:00,
2013-03-21 08:49:00,37.6,13.6,29.77,NNW,338,6.0,12.0,37,0.00,,,0.00,meteohub,2013-03-21 12:49:00,
2013-03-21 08:54:00,37.8,13.8,29.77,NE,45,6.0,12.0,37,0.00,,,0.00,meteohub,2013-03-21 12:54:00,
2013-03-21 08:59:00,37.6,13.1,29.77,NE,45,3.0,12.0,36,0.00,,,0.00,meteohub,2013-03-21 12:59:00,
2013-03-21 09:04:00,37.8,13.8,29.77,SE,135,3.0,11.0,37,0.00,,,0.00,meteohub,2013-03-21 13:04:00,
2013-03-21 09:09:00,37.9,13.3,29.77,North,0,3.0,11.0,36,0.00,,,0.00,meteohub,2013-03-21 13:09:00,
2013-03-21 09:14:00,38.1,13.5,29.77,NE,45,3.0,11.0,36,0.00,,,0.00,meteohub,2013-03-21 13:14:00,
2013-03-21 09:19:00,38.7,14.0,29.77,NE,45,6.0,9.0,36,0.00,,,0.00,meteohub,2013-03-21 13:19:00,
2013-03-21 09:24:00,39.4,13.3,29.77,NNW,338,5.0,8.0,34,0.00,,,0.00,meteohub,2013-03-21 13:24:00,
2013-03-21 09:29:00,39.7,12.9,29.77,NNE,22,13.0,13.0,33,0.00,,,0.00,meteohub,2013-03-21 13:29:00,
2013-03-21 09:34:00,39.2,12.6,29.77,North,0,4.0,8.0,33,0.00,,,0.00,meteohub,2013-03-21 13:34:00,
2013-03-21 09:39:00,39.7,12.9,29.77,North,0,0.0,13.0,33,0.00,,,0.00,meteohub,2013-03-21 13:39:00,
2013-03-21 09:44:00,39.7,13.6,29.80,NNW,338,3.0,13.0,34,0.00,,,0.00,meteohub,2013-03-21 13:44:00,
2013-03-21 09:49:00,38.8,12.2,29.80,NNE,22,5.0,13.0,33,0.00,,,0.00,meteohub,2013-03-21 13:49:00,
2013-03-21 09:54:00,38.8,12.2,29.80,NNW,338,4.0,13.0,33,0.00,,,0.00,meteohub,2013-03-21 13:54:00,
2013-03-21 09:59:00,39.4,12.7,29.80,ENE,68,11.0,13.0,33,0.00,,,0.00,meteohub,2013-03-21 13:59:00,
2013-03-21 10:04:00,39.4,12.7,29.80,NNE,22,11.0,11.0,33,0.00,,,0.00,meteohub,2013-03-21 14:04:00,
2013-03-21 10:09:00,39.4,12.0,29.80,NNE,22,8.0,15.0,32,0.00,,,0.00,meteohub,2013-03-21 14:09:00,
2013-03-21 10:14:00,39.2,11.8,29.80,NE,45,4.0,15.0,32,0.00,,,0.00,meteohub,2013-03-21 14:14:00,
2013-03-21 10:19:00,39.2,11.8,29.80,NNE,22,6.0,15.0,32,0.00,,,0.00,meteohub,2013-03-21 14:19:00,
2013-03-21 10:24:00,39.7,12.2,29.80,SSE,158,6.0,15.0,32,0.00,,,0.00,meteohub,2013-03-21 14:24:00,
2013-03-21 10:29:00,39.7,12.9,29.80,NNE,22,4.0,14.0,33,0.00,,,0.00,meteohub,2013-03-21 14:29:00,
2013-03-21 10:34:00,40.6,13.1,29.80,NE,45,11.0,17.0,32,0.00,,,0.00,meteohub,2013-03-21 14:34:00,
2013-03-21 10:39:00,40.5,12.9,29.80,NNE,22,4.0,17.0,32,0.00,,,0.00,meteohub,2013-03-21 14:39:00,
2013-03-21 10:44:00,41.2,13.5,29.80,NNW,338,8.0,13.0,32,0.00,,,0.00,meteohub,2013-03-21 14:44:00,
2013-03-21 10:49:00,41.5,13.8,29.80,West,270,5.0,13.0,32,0.00,,,0.00,meteohub,2013-03-21 14:49:00,
2013-03-21 10:54:00,42.1,14.4,29.80,North,0,2.0,13.0,32,0.00,,,0.00,meteohub,2013-03-21 14:54:00,
2013-03-21 10:59:00,42.1,13.6,29.80,NNE,22,8.0,13.0,31,0.00,,,0.00,meteohub,2013-03-21 14:59:00,
2013-03-21 11:04:00,41.0,12.7,29.80,NE,45,4.0,10.0,31,0.00,,,0.00,meteohub,2013-03-21 15:04:00,
2013-03-21 11:09:00,41.7,13.3,29.80,NNE,22,5.0,11.0,31,0.00,,,0.00,meteohub,2013-03-21 15:09:00,
2013-03-21 11:14:00,41.4,12.9,29.80,SSE,158,5.0,11.0,31,0.00,,,0.00,meteohub,2013-03-21 15:14:00,
2013-03-21 11:19:00,42.8,14.2,29.80,NNE,22,9.0,14.0,31,0.00,,,0.00,meteohub,2013-03-21 15:19:00,
2013-03-21 11:24:00,42.3,13.8,29.80,North,0,5.0,14.0,31,0.00,,,0.00,meteohub,2013-03-21 15:24:00,
2013-03-21 11:29:00,41.9,13.5,29.80,NNE,22,4.0,13.0,31,0.00,,,0.00,meteohub,2013-03-21 15:29:00,
2013-03-21 11:34:00,41.2,12.7,29.80,South,180,8.0,13.0,31,0.00,,,0.00,meteohub,2013-03-21 15:34:00,
2013-03-21 11:39:00,40.6,13.1,29.80,NE,45,5.0,11.0,32,0.00,,,0.00,meteohub,2013-03-21 15:39:00,
2013-03-21 11:44:00,39.7,12.2,29.80,NNE,22,11.0,11.0,32,0.00,,,0.00,meteohub,2013-03-21 15:44:00,
2013-03-21 11:49:00,41.2,13.5,29.80,SE,135,8.0,12.0,32,0.00,,,0.00,meteohub,2013-03-21 15:49:00,
2013-03-21 11:54:00,41.7,14.0,29.80,NNE,22,5.0,12.0,32,0.00,,,0.00,meteohub,2013-03-21 15:54:00,
2013-03-21 11:59:00,42.4,15.4,29.80,NE,45,6.0,12.0,33,0.00,,,0.00,meteohub,2013-03-21 15:59:00,
2013-03-21 12:04:00,41.5,13.8,29.80,NNE,22,8.0,11.0,32,0.00,,,0.00,meteohub,2013-03-21 16:04:00,
2013-03-21 12:09:00,42.3,15.8,29.80,ENE,68,6.0,10.0,34,0.00,,,0.00,meteohub,2013-03-21 16:09:00,
2013-03-21 12:14:00,42.3,15.3,29.80,ENE,68,3.0,10.0,33,0.00,,,0.00,meteohub,2013-03-21 16:14:00,
2013-03-21 12:19:00,43.0,15.8,29.80,NNE,22,5.0,10.0,33,0.00,,,0.00,meteohub,2013-03-21 16:19:00,
2013-03-21 12:24:00,43.0,15.1,29.80,NE,45,4.0,8.0,32,0.00,,,0.00,meteohub,2013-03-21 16:24:00,
2013-03-21 12:29:00,43.2,15.3,29.80,NNE,22,4.0,8.0,32,0.00,,,0.00,meteohub,2013-03-21 16:29:00,
2013-03-21 12:35:00,43.5,14.9,29.80,ESE,112,8.0,8.0,31,0.00,,,0.00,meteohub,2013-03-21 16:35:00,
2013-03-21 12:40:00,43.0,15.1,29.80,East,90,4.0,8.0,32,0.00,,,0.00,meteohub,2013-03-21 16:40:00,
2013-03-21 12:45:00,42.3,13.8,29.77,NE,45,8.0,13.0,31,0.00,,,0.00,meteohub,2013-03-21 16:45:00,
2013-03-21 12:50:00,42.1,13.6,29.77,SE,135,2.0,13.0,31,0.00,,,0.00,meteohub,2013-03-21 16:50:00,
2013-03-21 12:55:00,43.5,14.9,29.77,SSE,158,3.0,10.0,31,0.00,,,0.00,meteohub,2013-03-21 16:55:00,
2013-03-21 13:00:00,43.3,14.0,29.77,NW,315,6.0,10.0,30,0.00,,,0.00,meteohub,2013-03-21 17:00:00,
2013-03-21 13:05:00,42.8,13.5,29.77,WNW,292,2.0,10.0,30,0.00,,,0.00,meteohub,2013-03-21 17:05:00,
2013-03-21 13:10:00,43.5,14.2,29.77,North,0,7.0,8.0,30,0.00,,,0.00,meteohub,2013-03-21 17:10:00,
2013-03-21 13:15:00,42.1,12.0,29.77,North,0,5.0,8.0,29,0.00,,,0.00,meteohub,2013-03-21 17:15:00,
2013-03-21 13:20:00,43.5,13.3,29.77,NE,45,6.0,8.0,29,0.00,,,0.00,meteohub,2013-03-21 17:20:00,
2013-03-21 13:25:00,42.3,12.2,29.77,West,270,5.0,10.0,29,0.00,,,0.00,meteohub,2013-03-21 17:25:00,
2013-03-21 13:30:00,42.8,12.7,29.77,WSW,248,3.0,10.0,29,0.00,,,0.00,meteohub,2013-03-21 17:30:00,
2013-03-21 13:35:00,42.1,12.0,29.77,WSW,248,8.0,11.0,29,0.00,,,0.00,meteohub,2013-03-21 17:35:00,
2013-03-21 13:40:00,42.3,12.2,29.77,NNE,22,8.0,11.0,29,0.00,,,0.00,meteohub,2013-03-21 17:40:00,
2013-03-21 13:45:00,42.1,12.0,29.77,ESE,112,5.0,11.0,29,0.00,,,0.00,meteohub,2013-03-21 17:45:00,
2013-03-21 13:50:00,42.8,12.7,29.77,North,0,4.0,8.0,29,0.00,,,0.00,meteohub,2013-03-21 17:50:00,
2013-03-21 13:55:00,43.2,13.1,29.77,SSE,158,5.0,9.0,29,0.00,,,0.00,meteohub,2013-03-21 17:55:00,
2013-03-21 14:00:00,43.0,12.9,29.77,NE,45,6.0,9.0,29,0.00,,,0.00,meteohub,2013-03-21 18:00:00,
2013-03-21 14:05:00,43.3,13.3,29.77,North,0,5.0,9.0,29,0.00,,,0.00,meteohub,2013-03-21 18:05:00,
2013-03-21 14:10:00,45.1,14.0,29.77,SSW,202,6.0,9.0,28,0.00,,,0.00,meteohub,2013-03-21 18:10:00,
2013-03-21 14:15:00,45.3,14.2,29.77,NNE,22,6.0,11.0,28,0.00,,,0.00,meteohub,2013-03-21 18:15:00,
2013-03-21 14:20:00,45.0,13.8,29.77,North,0,6.0,13.0,28,0.00,,,0.00,meteohub,2013-03-21 18:20:00,
2013-03-21 14:25:00,45.3,14.2,29.77,West,270,3.0,13.0,28,0.00,,,0.00,meteohub,2013-03-21 18:25:00,
2013-03-21 14:30:00,45.1,14.0,29.77,South,180,5.0,9.0,28,0.00,,,0.00,meteohub,2013-03-21 18:30:00,
2013-03-21 14:35:00,45.9,14.5,29.77,WSW,248,3.0,9.0,28,0.00,,,0.00,meteohub,2013-03-21 18:35:00,
2013-03-21 14:40:00,45.9,14.5,29.77,NNE,22,4.0,9.0,28,0.00,,,0.00,meteohub,2013-03-21 18:40:00,
2013-03-21 14:45:00,45.1,13.1,29.77,ENE,68,5.0,9.0,27,0.00,,,0.00,meteohub,2013-03-21 18:45:00,
2013-03-21 14:50:00,46.0,14.7,29.77,NNW,338,3.0,9.0,28,0.00,,,0.00,meteohub,2013-03-21 18:50:00,
2013-03-21 14:55:00,45.3,13.3,29.77,SSE,158,3.0,8.0,27,0.00,,,0.00,meteohub,2013-03-21 18:55:00,
2013-03-21 15:00:00,46.0,14.7,29.77,SSW,202,3.0,11.0,28,0.00,,,0.00,meteohub,2013-03-21 19:00:00,
2013-03-21 15:05:00,46.0,14.0,29.77,WNW,292,5.0,11.0,27,0.00,,,0.00,meteohub,2013-03-21 19:05:00,
2013-03-21 15:10:00,44.8,12.7,29.77,NW,315,4.0,11.0,27,0.00,,,0.00,meteohub,2013-03-21 19:10:00,
2013-03-21 15:15:00,43.5,12.6,29.77,SW,225,4.0,11.0,28,0.00,,,0.00,meteohub,2013-03-21 19:15:00,
2013-03-21 15:20:00,44.8,13.6,29.77,West,270,6.0,11.0,28,0.00,,,0.00,meteohub,2013-03-21 19:20:00,
2013-03-21 15:25:00,43.7,12.7,29.77,WSW,248,9.0,11.0,28,0.00,,,0.00,meteohub,2013-03-21 19:25:00,
2013-03-21 15:30:00,44.1,13.1,29.77,NE,45,3.0,11.0,28,0.00,,,0.00,meteohub,2013-03-21 19:30:00,
2013-03-21 15:35:00,43.7,12.7,29.77,WSW,248,4.0,11.0,28,0.00,,,0.00,meteohub,2013-03-21 19:35:00,
2013-03-21 15:41:00,43.2,12.2,29.77,NNW,338,4.0,11.0,28,0.00,,,0.00,meteohub,2013-03-21 19:41:00,
2013-03-21 15:46:00,42.4,11.7,29.77,NNE,22,3.0,11.0,28,0.00,,,0.00,meteohub,2013-03-21 19:46:00,
2013-03-21 15:51:00,42.8,12.0,29.77,SSW,202,3.0,11.0,28,0.00,,,0.00,meteohub,2013-03-21 19:51:00,
2013-03-21 15:56:00,42.4,11.7,29.77,NNE,22,3.0,11.0,28,0.00,,,0.00,meteohub,2013-03-21 19:56:00,
2013-03-21 16:01:00,43.0,12.0,29.77,WSW,248,4.0,8.0,28,0.00,,,0.00,meteohub,2013-03-21 20:01:00,
2013-03-21 16:06:00,43.3,12.4,29.77,WNW,292,6.0,10.0,28,0.00,,,0.00,meteohub,2013-03-21 20:06:00,
2013-03-21 16:11:00,43.3,12.4,29.77,West,270,8.0,10.0,28,0.00,,,0.00,meteohub,2013-03-21 20:11:00,
2013-03-21 16:16:00,45.3,13.3,29.77,NW,315,6.0,12.0,27,0.00,,,0.00,meteohub,2013-03-21 20:16:00,
2013-03-21 16:22:00,45.0,11.3,29.77,NW,315,5.0,12.0,25,0.00,,,0.00,meteohub,2013-03-21 20:22:00,
2013-03-21 16:27:00,45.1,11.5,29.80,NNE,22,6.0,17.0,25,0.00,,,0.00,meteohub,2013-03-21 20:27:00,
2013-03-21 16:32:00,45.3,11.5,29.80,NNE,22,6.0,17.0,25,0.00,,,0.00,meteohub,2013-03-21 20:32:00,
2013-03-21 16:37:00,43.7,10.2,29.80,West,270,4.0,11.0,25,0.00,,,0.00,meteohub,2013-03-21 20:37:00,
2013-03-21 16:42:00,43.5,10.0,29.80,NW,315,3.0,13.0,25,0.00,,,0.00,meteohub,2013-03-21 20:42:00,
2013-03-21 16:47:00,45.0,12.9,29.80,WSW,248,9.0,13.0,27,0.00,,,0.00,meteohub,2013-03-21 20:47:00,
2013-03-21 16:52:00,44.1,13.1,29.80,WSW,248,7.0,13.0,28,0.00,,,0.00,meteohub,2013-03-21 20:52:00,
2013-03-21 16:57:00,44.2,10.6,29.80,West,270,5.0,10.0,25,0.00,,,0.00,meteohub,2013-03-21 20:57:00,
2013-03-21 17:03:00,43.9,10.4,29.80,NNW,338,6.0,12.0,25,0.00,,,0.00,meteohub,2013-03-21 21:03:00,
2013-03-21 17:08:00,44.1,10.4,29.80,NNE,22,4.0,12.0,25,0.00,,,0.00,meteohub,2013-03-21 21:08:00,
2013-03-21 17:13:00,43.0,9.5,29.80,WSW,248,4.0,11.0,25,0.00,,,0.00,meteohub,2013-03-21 21:13:00,
2013-03-21 17:18:00,41.9,9.5,29.80,WSW,248,4.0,10.0,26,0.00,,,0.00,meteohub,2013-03-21 21:18:00,
2013-03-21 17:23:00,41.7,10.9,29.80,WSW,248,6.0,10.0,28,0.00,,,0.00,meteohub,2013-03-21 21:23:00,
2013-03-21 17:28:00,41.5,10.8,29.83,WNW,292,4.0,10.0,28,0.00,,,0.00,meteohub,2013-03-21 21:28:00,
2013-03-21 17:33:00,40.6,10.0,29.83,WSW,248,4.0,10.0,28,0.00,,,0.00,meteohub,2013-03-21 21:33:00,
2013-03-21 17:38:00,41.0,10.4,29.83,North,0,4.0,10.0,28,0.00,,,0.00,meteohub,2013-03-21 21:38:00,
2013-03-21 17:43:00,40.6,10.0,29.83,ENE,68,6.0,10.0,28,0.00,,,0.00,meteohub,2013-03-21 21:43:00,
2013-03-21 17:48:00,40.3,9.7,29.83,North,0,4.0,9.0,28,0.00,,,0.00,meteohub,2013-03-21 21:48:00,
2013-03-21 17:53:00,40.5,9.9,29.83,North,0,4.0,8.0,28,0.00,,,0.00,meteohub,2013-03-21 21:53:00,
2013-03-21 17:58:00,40.5,9.9,29.83,NNE,22,10.0,10.0,28,0.00,,,0.00,meteohub,2013-03-21 21:58:00,
2013-03-21 18:03:00,39.9,9.5,29.83,NNW,338,3.0,8.0,28,0.00,,,0.00,meteohub,2013-03-21 22:03:00,
2013-03-21 18:08:00,39.7,9.3,29.83,WSW,248,3.0,11.0,28,0.00,,,0.00,meteohub,2013-03-21 22:08:00,
2013-03-21 18:13:00,39.9,9.5,29.83,ESE,112,4.0,12.0,28,0.00,,,0.00,meteohub,2013-03-21 22:13:00,
2013-03-21 18:18:00,40.3,9.7,29.83,WNW,292,2.0,12.0,28,0.00,,,0.00,meteohub,2013-03-21 22:18:00,
2013-03-21 18:23:00,40.5,9.9,29.83,NNE,22,5.0,12.0,28,0.00,,,0.00,meteohub,2013-03-21 22:23:00,
2013-03-21 18:28:00,39.9,9.5,29.83,NNE,22,4.0,8.0,28,0.00,,,0.00,meteohub,2013-03-21 22:28:00,
2013-03-21 18:33:00,39.4,7.3,29.83,NE,45,12.0,12.0,26,0.00,,,0.00,meteohub,2013-03-21 22:33:00,
2013-03-21 18:39:00,39.0,7.0,29.83,North,0,8.0,12.0,26,0.00,,,0.00,meteohub,2013-03-21 22:39:00,
2013-03-21 18:44:00,38.5,6.6,29.86,NNW,338,6.0,12.0,26,0.00,,,0.00,meteohub,2013-03-21 22:44:00,
2013-03-21 18:49:00,38.1,8.6,29.86,SSW,202,3.0,12.0,29,0.00,,,0.00,meteohub,2013-03-21 22:49:00,
2013-03-21 18:54:00,37.9,6.1,29.86,NNE,22,2.0,11.0,26,0.00,,,0.00,meteohub,2013-03-21 22:54:00,
2013-03-21 18:59:00,37.6,5.7,29.86,NE,45,5.0,6.0,26,0.00,,,0.00,meteohub,2013-03-21 22:59:00,
2013-03-21 19:04:00,37.4,5.5,29.86,WNW,292,0.0,11.0,26,0.00,,,0.00,meteohub,2013-03-21 23:04:00,
2013-03-21 19:09:00,37.0,7.7,29.86,NNE,22,0.0,11.0,29,0.00,,,0.00,meteohub,2013-03-21 23:09:00,
2013-03-21 19:14:00,36.9,5.9,29.86,NNE,22,6.0,11.0,27,0.00,,,0.00,meteohub,2013-03-21 23:14:00,
2013-03-21 19:19:00,36.7,5.9,29.86,NNW,338,6.0,9.0,27,0.00,,,0.00,meteohub,2013-03-21 23:19:00,
2013-03-21 19:24:00,36.5,5.7,29.86,North,0,3.0,9.0,27,0.00,,,0.00,meteohub,2013-03-21 23:24:00,
2013-03-21 19:29:00,36.3,5.5,29.86,NNE,22,6.0,9.0,27,0.00,,,0.00,meteohub,2013-03-21 23:29:00,
2013-03-21 19:34:00,35.8,5.0,29.86,NNE,22,5.0,8.0,27,0.00,,,0.00,meteohub,2013-03-21 23:34:00,
2013-03-21 19:39:00,35.8,5.0,29.86,NNW,338,0.0,8.0,27,0.00,,,0.00,meteohub,2013-03-21 23:39:00,
2013-03-21 19:44:00,35.4,7.0,29.89,NNW,338,2.0,8.0,30,0.00,,,0.00,meteohub,2013-03-21 23:44:00,
2013-03-21 19:53:00,35.1,6.8,29.89,North,0,2.0,7.0,30,0.00,,,0.00,meteohub,2013-03-21 23:53:00,
2013-03-21 20:00:00,34.5,6.3,29.89,NW,315,5.0,5.0,30,0.00,,,0.00,meteohub,2013-03-22 00:00:00,
2013-03-21 20:05:00,34.3,6.1,29.89,NNE,22,0.0,5.0,30,0.00,,,0.00,meteohub,2013-03-22 00:05:00,
2013-03-21 20:10:00,34.3,3.7,29.89,NNE,22,4.0,5.0,27,0.00,,,0.00,meteohub,2013-03-22 00:10:00,
2013-03-21 20:15:00,34.5,3.9,29.89,NNE,22,3.0,5.0,27,0.00,,,0.00,meteohub,2013-03-22 00:15:00,
2013-03-21 20:20:00,34.3,3.7,29.89,ENE,68,4.0,6.0,27,0.00,,,0.00,meteohub,2013-03-22 00:20:00,
2013-03-21 20:25:00,34.2,3.7,29.89,North,0,4.0,6.0,27,0.00,,,0.00,meteohub,2013-03-22 00:25:00,
2013-03-21 20:30:00,34.2,3.7,29.89,NNW,338,2.0,6.0,27,0.00,,,0.00,meteohub,2013-03-22 00:30:00,
2013-03-21 20:35:00,34.0,5.7,29.89,NNW,338,3.0,7.0,30,0.00,,,0.00,meteohub,2013-03-22 00:35:00,
2013-03-21 20:40:00,34.0,3.6,29.89,North,0,4.0,7.0,27,0.00,,,0.00,meteohub,2013-03-22 00:40:00,
2013-03-21 20:45:00,34.0,3.6,29.92,NNE,22,4.0,7.0,27,0.00,,,0.00,meteohub,2013-03-22 00:45:00,
2013-03-21 20:50:00,33.8,3.4,29.92,NNW,338,0.0,7.0,27,0.00,,,0.00,meteohub,2013-03-22 00:50:00,
2013-03-21 21:00:00,33.6,3.9,29.92,SSE,158,4.0,8.0,28,0.00,,,0.00,meteohub,2013-03-22 01:00:00,
2013-03-21 21:05:00,33.4,5.4,29.92,SSW,202,0.0,8.0,30,0.00,,,0.00,meteohub,2013-03-22 01:05:00,
2013-03-21 21:10:00,33.3,5.2,29.92,North,0,4.0,5.0,30,0.00,,,0.00,meteohub,2013-03-22 01:10:00,
2013-03-21 21:15:00,33.3,5.2,29.92,NNE,22,5.0,6.0,30,0.00,,,0.00,meteohub,2013-03-22 01:15:00,
2013-03-21 21:20:00,33.1,5.0,29.92,SSW,202,0.0,6.0,30,0.00,,,0.00,meteohub,2013-03-22 01:20:00,
2013-03-21 21:25:00,33.1,5.0,29.92,NNE,22,4.0,6.0,30,0.00,,,0.00,meteohub,2013-03-22 01:25:00,
2013-03-21 21:30:00,33.1,5.0,29.92,NNE,22,3.0,8.0,30,0.00,,,0.00,meteohub,2013-03-22 01:30:00,
2013-03-21 21:35:00,33.1,5.0,29.92,ESE,112,4.0,8.0,30,0.00,,,0.00,meteohub,2013-03-22 01:35:00,
2013-03-21 21:40:00,32.7,4.6,29.92,North,0,2.0,6.0,30,0.00,,,0.00,meteohub,2013-03-22 01:40:00,
2013-03-21 21:45:00,32.5,4.5,29.92,SSW,202,0.0,6.0,30,0.00,,,0.00,meteohub,2013-03-22 01:45:00,
2013-03-21 21:50:00,32.5,4.5,29.92,SW,225,3.0,6.0,30,0.00,,,0.00,meteohub,2013-03-22 01:50:00,
2013-03-21 21:55:00,32.4,4.5,29.95,SW,225,0.0,7.0,30,0.00,,,0.00,meteohub,2013-03-22 01:55:00,
2013-03-21 22:00:00,32.2,4.3,29.95,WNW,292,3.0,7.0,30,0.00,,,0.00,meteohub,2013-03-22 02:00:00,
2013-03-21 22:05:00,32.0,4.1,29.95,SW,225,0.0,3.0,30,0.00,,,0.00,meteohub,2013-03-22 02:05:00,
2013-03-21 22:10:00,31.5,3.6,29.95,WSW,248,2.0,3.0,30,0.00,,,0.00,meteohub,2013-03-22 02:10:00,
2013-03-21 22:15:00,31.3,3.4,29.95,North,0,3.0,3.0,30,0.00,,,0.00,meteohub,2013-03-22 02:15:00,
2013-03-21 22:20:00,31.1,3.2,29.95,East,90,0.0,4.0,30,0.00,,,0.00,meteohub,2013-03-22 02:20:00,
2013-03-21 22:25:00,30.6,2.8,29.95,ENE,68,0.0,4.0,30,0.00,,,0.00,meteohub,2013-03-22 02:25:00,
2013-03-21 22:30:00,30.4,2.7,29.95,North,0,0.0,4.0,30,0.00,,,0.00,meteohub,2013-03-22 02:30:00,
2013-03-21 22:35:00,30.2,3.2,29.95,WSW,248,0.0,3.0,31,0.00,,,0.00,meteohub,2013-03-22 02:35:00,
2013-03-21 22:40:00,30.0,3.0,29.95,WSW,248,0.0,3.0,31,0.00,,,0.00,meteohub,2013-03-22 02:40:00,
2013-03-21 22:45:00,30.0,3.0,29.95,WSW,248,0.0,3.0,31,0.00,,,0.00,meteohub,2013-03-22 02:45:00,
2013-03-21 22:51:00,29.7,2.7,29.95,NNE,22,0.0,4.0,31,0.00,,,0.00,meteohub,2013-03-22 02:51:00,
2013-03-21 22:56:00,29.5,2.5,29.95,NNE,22,2.0,4.0,31,0.00,,,0.00,meteohub,2013-03-22 02:56:00,
2013-03-21 23:01:00,29.8,2.8,29.95,SE,135,5.0,5.0,31,0.00,,,0.00,meteohub,2013-03-22 03:01:00,
2013-03-21 23:06:00,30.2,3.2,29.95,North,0,4.0,5.0,31,0.00,,,0.00,meteohub,2013-03-22 03:06:00,
2013-03-21 23:11:00,30.2,3.2,29.95,WNW,292,3.0,5.0,31,0.00,,,0.00,meteohub,2013-03-22 03:11:00,
2013-03-21 23:16:00,30.2,3.2,29.95,East,90,0.0,5.0,31,0.00,,,0.00,meteohub,2013-03-22 03:16:00,
2013-03-21 23:21:00,29.8,2.8,29.95,North,0,2.0,5.0,31,0.00,,,0.00,meteohub,2013-03-22 03:21:00,
2013-03-21 23:26:00,29.7,2.7,29.95,NNE,22,3.0,5.0,31,0.00,,,0.00,meteohub,2013-03-22 03:26:00,
2013-03-21 23:31:00,30.0,3.0,29.95,WSW,248,3.0,5.0,31,0.00,,,0.00,meteohub,2013-03-22 03:31:00,
2013-03-21 23:36:00,30.0,3.7,29.95,NW,315,3.0,6.0,32,0.00,,,0.00,meteohub,2013-03-22 03:36:00,
2013-03-21 23:41:00,29.7,3.4,29.95,SW,225,0.0,8.0,32,0.00,,,0.00,meteohub,2013-03-22 03:41:00,
2013-03-21 23:46:00,29.5,3.2,29.95,East,90,2.0,8.0,32,0.00,,,0.00,meteohub,2013-03-22 03:46:00,
2013-03-21 23:51:00,29.5,3.2,29.95,NE,45,0.0,8.0,32,0.00,,,0.00,meteohub,2013-03-22 03:51:00,
2013-03-21 23:56:00,29.5,3.2,29.95,NNE,22,3.0,5.0,32,0.00,,,0.00,meteohub,2013-03-22 03:56:00,